Weather History for Gainesville, FL

Change the Weather History Date:

Sunday, February 17, 2013

  Actual Average Record
Temperature  
Mean Temperature 41 °F 58 °F  
Max Temperature 54 °F 70 °F 85 °F (1928)
Min Temperature 27 °F 46 °F 23 °F (2007)
Degree Days  
Heating Degree Days 24 8  
Month to date heating degree days 139 153  
Since 1 July heating degree days 683 955  
Cooling Degree Days 0 1  
Month to date cooling degree days 22 13  
Year to date cooling degree days 82 25  
Moisture  
Dew Point 15 °F    
Average Humidity 44    
Maximum Humidity 75    
Minimum Humidity 13    
Precipitation  
Precipitation 0.00 in 0.11 in 0.90 in (1998)
Month to date precipitation 0.42 1.89  
Year to date precipitation 0.75 5.20  
Snow  
Snow 0.00 in 0.00 in 0.00 in ()
Month to date snowfall 0.0 0.0  
Since 1 July snowfall 0.0 0.0  
Snow Depth 0.00 in    
Sea Level Pressure  
Sea Level Pressure 30.29 in    
Wind  
Wind Speed 6 mph (NW)    
Max Wind Speed 17 mph    
Max Gust Speed 9 mph    
Visibility 10 miles    
Events      
T = Trace of Precipitation, MM = Missing Value Source: NWS Daily Summary

Daily Weather History Graph

Daily Weather History Graph

Search for Another Location

Airport:

Trip Planner

Search our weather history database for the weather conditions in past years. The results will help you decide how hot, cold, wet, or windy it might be!

Date:

Astronomy

Feb. 17, 2013 Rise Set
Actual Time 7:06 AM EST 6:19 PM EST
Civil Twilight 6:42 AM EST 6:44 PM EST
Nautical Twilight 6:14 AM EST 7:12 PM EST
Astronomical Twilight 5:46 AM EST 7:39 PM EST
Moon 11:33 AM EST (2/17) 12:40 AM EST (2/17)
Length of Visible Light 12h 01m
Length of Day
11h 13m
Waxing Crescent, 49% of the Moon is Illuminated
Feb 17
Waxing Crescent
Feb 17
First Quarter
Feb 25
Full
Mar 4
Last Quarter
Mar 11
New

Hourly Weather History & Observations

Time (EST) Temp. Windchill Dew Point Humidity Pressure Visibility Wind Dir Wind Speed Gust Speed Precip Events Conditions
12:53 AM 37.0 °F 34.5 °F 17.1 °F 44% 30.20 in 10.0 mi WNW 3.5 mph - N/A   Clear
1:53 AM 30.9 °F 25.2 °F 19.0 °F 61% 30.22 in 10.0 mi West 5.8 mph - N/A   Clear
2:53 AM 30.9 °F 26.2 °F 19.0 °F 61% 30.22 in 10.0 mi West 4.6 mph - N/A   Clear
3:53 AM 32.0 °F 26.4 °F 18.0 °F 56% 30.22 in 10.0 mi NW 5.8 mph - N/A   Clear
4:53 AM 30.9 °F 26.2 °F 18.0 °F 59% 30.23 in 10.0 mi NW 4.6 mph - N/A   Clear
5:53 AM 30.9 °F 25.2 °F 18.0 °F 59% 30.27 in 10.0 mi NW 5.8 mph - N/A   Clear
6:53 AM 30.0 °F 26.5 °F 18.0 °F 61% 30.29 in 10.0 mi NW 3.5 mph - N/A   Clear
7:53 AM 32.0 °F 26.4 °F 19.0 °F 59% 30.31 in 10.0 mi NW 5.8 mph - N/A   Clear
9:53 AM 41.0 °F 33.1 °F 12.9 °F 32% 30.35 in 10.0 mi North 15.0 mph - N/A   Clear
10:53 AM 44.1 °F 39.0 °F 12.0 °F 27% 30.35 in 10.0 mi NNW 9.2 mph - N/A   Clear
11:53 AM 46.9 °F - 9.0 °F 21% 30.35 in 10.0 mi NNW 10.4 mph - N/A   Clear
1:53 PM 52.0 °F - 8.1 °F 17% 30.31 in 10.0 mi Variable 3.5 mph - N/A   Clear
3:53 PM 53.1 °F - 5.0 °F 14% 30.28 in 10.0 mi NNW 9.2 mph - N/A   Clear
4:53 PM 53.1 °F - 7.0 °F 16% 30.29 in 10.0 mi Variable 4.6 mph - N/A   Clear
5:53 PM 50.0 °F - 8.1 °F 18% 30.29 in 10.0 mi NW 4.6 mph - N/A   Clear
6:53 PM 43.0 °F - 16.0 °F 34% 30.30 in 10.0 mi Calm Calm - N/A   Clear
7:53 PM 35.1 °F 32.2 °F 19.9 °F 54% 30.32 in 10.0 mi West 3.5 mph - N/A   Clear
8:53 PM 32.0 °F - 21.0 °F 64% 30.34 in 10.0 mi Calm Calm - N/A   Clear
9:53 PM 30.0 °F 26.5 °F 21.0 °F 69% 30.36 in 10.0 mi WNW 3.5 mph - N/A   Clear
10:53 PM 28.0 °F - 21.0 °F 75% 30.38 in 10.0 mi Calm Calm - N/A   Clear